This is the latest recevied weather packets stored in our database for station/object F4AMY-13. If no packets are shown the sender has not sent any weather packets the latest 10 day(s).
| Time | Temp. | Humidity | Pressure | Rain* | Wind** | Luminosity | Snow |
|---|---|---|---|---|---|---|---|
| 1777652843 | 26.11° C | 39% | 1021 hPa | 0 mm | 113.55 m/s, ° | 254 W/m² | - |
| 1777652543 | 26.11° C | 40% | 1021 hPa | 0 mm | 132.32 m/s, ° | 296 W/m² | - |
| 1777652243 | 26.11° C | 39% | 1020.9 hPa | 0 mm | 113.1 m/s, ° | 253 W/m² | - |
| 1777651943 | 26.67° C | 40% | 1020.9 hPa | 0 mm | 110.87 m/s, ° | 248 W/m² | - |
| 1777651643 | 26.67° C | 40% | 1020.9 hPa | 0 mm | 110.87 m/s, ° | 248 W/m² | - |
| 1777651343 | 26.67° C | 38% | 1020.9 hPa | 0 mm | 130.09 m/s, ° | 291 W/m² | - |
| 1777651043 | 27.22° C | 39% | 1021 hPa | 0 mm | 91.2 m/s, ° | 204 W/m² | - |
| 1777650743 | 27.78° C | 37% | 1020.9 hPa | 0 mm | 99.69 m/s, ° | 223 W/m² | - |
| 1777650443 | 27.78° C | 38% | 1021.1 hPa | 0 mm | 56.33 m/s, ° | 126 W/m² | - |
| 1777650143 | 27.78° C | 36% | 1021.2 hPa | 0 mm | 136.35 m/s, ° | 305 W/m² | - |
| 1777649843 | 27.78° C | 37% | 1021.1 hPa | 0 mm | 129.19 m/s, ° | 289 W/m² | - |
| 1777649542 | 27.78° C | 36% | 1021.2 hPa | 0 mm | 152.44 m/s, ° | 341 W/m² | - |
| 1777649242 | 27.78° C | 35% | 1020.8 hPa | 0 mm | 160.49 m/s, ° | 359 W/m² | - |
| 1777648942 | 27.78° C | 37% | 1021.1 hPa | 0 mm | 161.38 m/s, ° | 361 W/m² | - |
| 1777648642 | 27.22° C | 34% | 1021 hPa | 0 mm | 163.62 m/s, ° | 366 W/m² | - |
| 1777648342 | 26.67° C | 37% | 1021.1 hPa | 0 mm | 155.57 m/s, ° | 348 W/m² | - |
| 1777648042 | 26.67° C | 34% | 1021.1 hPa | 0 mm | 156.91 m/s, ° | 351 W/m² | - |
| 1777647742 | 26.67° C | 36% | 1021.1 hPa | 0 mm | 160.49 m/s, ° | 359 W/m² | - |
| 1777647442 | 26.67° C | 39% | 1021.3 hPa | 0 mm | 150.65 m/s, ° | 337 W/m² | - |
| 1777647142 | 26.11° C | 39% | 1021 hPa | 0 mm | 147.08 m/s, ° | 329 W/m² | - |
| 1777646842 | 26.11° C | 39% | 1021.3 hPa | 0 mm | 140.37 m/s, ° | 314 W/m² | - |
| 1777646542 | 26.11° C | 38% | 1021.3 hPa | 0 mm | 136.35 m/s, ° | 305 W/m² | - |
| 1777646242 | 25.56° C | 39% | 1021.2 hPa | 0 mm | 136.35 m/s, ° | 305 W/m² | - |
| 1777645942 | 26.11° C | 37% | 1021.3 hPa | 0 mm | 128.75 m/s, ° | 288 W/m² | - |
| 1777645642 | 25.56° C | 37% | 1021.1 hPa | 0 mm | 151.55 m/s, ° | 339 W/m² | - |
* Rain latest hour (hover to see other rain measurements)
** Current wind speed in m/s (hover to see current wind gust speed)